パンスターズ彗星

C/2021 A9 ( PanSTARRS )

English version
Home page
Updated on December 1, 2023

---------------------------------------------------------------------

・ プロフィール

発見日 2021年1月12日
発見光度 21.4等
発見者 Pan-STARRS 1 telescope (Haleakala)

・ 写真集

・ 軌道要素

Epoch 2023 Feb. 25.0 TT = JDT 2460000.5
T 2023 Dec. 1.53673 TT                                  Rudenko
q   7.7601897            (2000.0)            P               Q
z  -0.0003115      Peri.  211.45693     -0.25838513     +0.92887149
 +/-0.0000028      Node   314.84162     +0.94571647     +0.29927418
e   1.0024170      Incl.  158.01938     +0.19712300     -0.21824923
>From 280 observations 2020 Dec. 12-2023 Mar. 17, mean residual 0".6.

・ 光度変化

        m1 = -2.5 + 5 logΔ + 18.0 log r

---------------------------------------------------------------------

軌道要素はM.P.E.C. 2023-F81に掲載されたものです。
光度グラフはComet for Windowsで作成したものです。

---------------------------------------------------------------------

Copyright(C) Seiichi Yoshida (comet@aerith.net). All rights reserved.